Weather History for McAlester, OK

Change the Weather History Date:

Wednesday, December 19, 2012

  Actual Average Record
Temperature  
Mean Temperature 59 °F -  
Max Temperature 72 °F 53 °F 72 °F (2012)
Min Temperature 46 °F 31 °F 9 °F (1983)
Degree Days  
Heating Degree Days 6    
Growing Degree Days 9 (Base 50)    
Moisture  
Dew Point 52 °F    
Average Humidity 72    
Maximum Humidity 94    
Minimum Humidity 35    
Precipitation  
Precipitation 0.57 in - - ()
Sea Level Pressure  
Sea Level Pressure 29.61 in    
Wind  
Wind Speed 9 mph (South)    
Max Wind Speed 37 mph    
Max Gust Speed 54 mph    
Visibility 9 miles    
Events Fog , Rain , Thunderstorm    
Averages and records for this station are not official NWS values.
T = Trace of Precipitation, MM = Missing Value Source: NWS Daily Summary

Daily Weather History Graph

Daily Weather History Graph

Search for Another Location

Airport:

Trip Planner

Search our weather history database for the weather conditions in past years. The results will help you decide how hot, cold, wet, or windy it might be!

Date:

Astronomy

Dec. 19, 2012 Rise Set
Actual Time 7:26 AM CST 5:14 PM CST
Civil Twilight 6:58 AM CST 5:43 PM CST
Nautical Twilight 6:26 AM CST 6:14 PM CST
Astronomical Twilight 5:55 AM CST 6:45 PM CST
Moon 11:51 AM CST (12/19) No Moon Set
Length of Visible Light 10h 45m
Length of Day
9h 48m
Waxing Crescent, 45% of the Moon is Illuminated
Dec 19
Waxing Crescent
Dec 19
First Quarter
Dec 28
Full
Jan 4
Last Quarter
Jan 11
New

Hourly Weather History & Observations

Time (CST) Temp. Dew Point Humidity Pressure Visibility Wind Dir Wind Speed Gust Speed Precip Events Conditions
12:53 AM 46.9 °F 34.0 °F 61% 29.77 in 10.0 mi Calm Calm - N/A   Partly Cloudy
1:53 AM 50.0 °F 35.1 °F 57% 29.75 in 10.0 mi ESE 4.6 mph - N/A   Scattered Clouds
2:53 AM 48.9 °F 34.0 °F 56% 29.74 in 10.0 mi Calm Calm - N/A   Scattered Clouds
3:53 AM 57.0 °F 44.1 °F 62% 29.72 in 10.0 mi South 6.9 mph - N/A   Partly Cloudy
4:53 AM 57.9 °F 48.9 °F 72% 29.72 in 10.0 mi South 6.9 mph - N/A   Partly Cloudy
5:53 AM 57.9 °F 51.1 °F 78% 29.71 in 10.0 mi South 8.1 mph - N/A   Partly Cloudy
6:53 AM 59.0 °F 53.1 °F 81% 29.72 in 10.0 mi South 11.5 mph 17.3 mph N/A   Mostly Cloudy
7:53 AM 61.0 °F 55.0 °F 81% 29.73 in 10.0 mi South 9.2 mph 19.6 mph N/A   Overcast
8:09 AM 60.8 °F 55.4 °F 82% 29.73 in 10.0 mi South 9.2 mph 18.4 mph N/A   Overcast
8:53 AM 62.1 °F 55.9 °F 80% 29.72 in 10.0 mi South 8.1 mph 17.3 mph N/A   Overcast
9:53 AM 64.0 °F 57.0 °F 78% 29.71 in 10.0 mi South 11.5 mph 20.7 mph N/A   Overcast
10:38 AM 66.2 °F 57.2 °F 73% 29.71 in 10.0 mi South 15.0 mph 23.0 mph N/A   Overcast
10:53 AM 66.0 °F 57.9 °F 75% 29.69 in 10.0 mi South 15.0 mph 20.7 mph N/A   Overcast
11:37 AM 66.2 °F 59.0 °F 78% 29.68 in 10.0 mi South 16.1 mph 25.3 mph N/A   Overcast
11:53 AM 66.9 °F 59.0 °F 76% 29.66 in 10.0 mi South 11.5 mph 20.7 mph N/A   Overcast
12:53 PM 69.1 °F 59.0 °F 70% 29.60 in 10.0 mi South 11.5 mph 21.9 mph N/A   Partly Cloudy
1:53 PM 70.0 °F 59.0 °F 68% 29.57 in 10.0 mi South 12.7 mph 28.8 mph N/A   Partly Cloudy
2:53 PM 71.1 °F 59.0 °F 66% 29.56 in 10.0 mi South 10.4 mph 17.3 mph N/A   Overcast
3:53 PM 72.0 °F 59.0 °F 64% 29.53 in 10.0 mi South 10.4 mph 20.7 mph N/A   Partly Cloudy
4:53 PM 72.0 °F 59.0 °F 64% 29.53 in 10.0 mi South 11.5 mph - N/A   Mostly Cloudy
5:53 PM 71.1 °F 59.0 °F 66% 29.52 in 10.0 mi South 11.5 mph 19.6 mph N/A   Scattered Clouds
6:53 PM 72.0 °F 60.1 °F 66% 29.53 in 10.0 mi South 12.7 mph 21.9 mph N/A   Mostly Cloudy
7:41 PM 71.6 °F 60.8 °F 69% 29.51 in 10.0 mi WSW 12.7 mph - N/A Thunderstorm Thunderstorm
7:53 PM 64.9 °F 55.0 °F 70% 29.56 in 2.0 mi SW 36.8 mph 49.5 mph 0.12 in Rain , Thunderstorm Thunderstorms and Rain
7:55 PM 60.8 °F 53.6 °F 77% 29.58 in 1.2 mi SW 32.2 mph 49.5 mph 0.10 in Rain , Thunderstorm Heavy Thunderstorms and Rain
7:58 PM 57.2 °F 53.6 °F 88% 29.53 in 0.5 mi South 29.9 mph 54.1 mph 0.36 in Fog , Rain , Thunderstorm Heavy Thunderstorms and Rain
8:04 PM 59.0 °F 53.6 °F 82% 29.52 in 0.8 mi South 11.5 mph 54.1 mph 0.41 in Rain , Thunderstorm Light Thunderstorms and Rain
8:08 PM 59.0 °F 55.4 °F 88% 29.54 in 2.0 mi South 11.5 mph 31.1 mph 0.42 in Rain , Thunderstorm Light Thunderstorms and Rain
8:15 PM 55.4 °F 53.6 °F 94% 29.52 in 4.0 mi South 6.9 mph - 0.44 in Rain , Thunderstorm Thunderstorms and Rain
8:53 PM 60.1 °F 57.0 °F 90% 29.49 in 10.0 mi SSW 10.4 mph - 0.45 in Thunderstorm Mostly Cloudy
9:02 PM 60.8 °F 55.4 °F 82% 29.51 in 10.0 mi SSW 8.1 mph - N/A Thunderstorm Overcast
9:23 PM 57.2 °F 53.6 °F 88% 29.50 in 10.0 mi SSW 6.9 mph - N/A   Overcast
9:53 PM 57.9 °F 53.1 °F 84% 29.52 in 10.0 mi SW 12.7 mph - N/A   Mostly Cloudy
10:29 PM 62.6 °F 39.2 °F 42% 29.56 in 9.0 mi West 13.8 mph 21.9 mph N/A   Mostly Cloudy
10:53 PM 61.0 °F 35.1 °F 38% 29.57 in 10.0 mi West 13.8 mph 27.6 mph N/A   Overcast
11:53 PM 54.0 °F 27.0 °F 35% 29.62 in 10.0 mi WSW 23.0 mph 41.4 mph N/A   Mostly Cloudy